| time (UTC) | temp F | wind direction | speed knots | gust knots | rain 1hr in | rain 24hr in | rain mn in | humidity % | barometer mb |
| 20260504050005 | 61 | 330 | 2.6 | 10.4 | 0.00 | 0.00 | 0.00 | 60 | 993.7 |
| 20260504044504 | 63 | 318 | 4.3 | 24.3 | 0.00 | 0.00 | 0.00 | 55 | 993.0 |
| 20260504043003 | 63 | 290 | 0.0 | 0.0 | 0.00 | 0.00 | 0.00 | 48 | 992.3 |
| 20260504041501 | 64 | 263 | 0.0 | 0.0 | 0.00 | 0.00 | 0.00 | 47 | 992.4 |
| 20260504040105 | 66 | 286 | 0.0 | 9.6 | 0.00 | 0.00 | 0.00 | 44 | 992.7 |
| 20260504034558 | 65 | 289 | 2.6 | 11.3 | 0.00 | 0.00 | 0.00 | 44 | 993.2 |
| 20260504033058 | 65 | 285 | 0.0 | 8.7 | 0.00 | 0.00 | 0.00 | 44 | 993.6 |
| 20260504031628 | 64 | 278 | 4.3 | 13.9 | 0.00 | 0.00 | 0.00 | 45 | 993.6 |
| 20260504030056 | 64 | 245 | 8.7 | 12.2 | 0.00 | 0.00 | 0.00 | 45 | 992.7 |
| 20260504024554 | 63 | 239 | 6.1 | 12.2 | 0.00 | 0.00 | 0.00 | 46 | 993.0 |
| 20260504023052 | 64 | 243 | 6.1 | 10.4 | 0.00 | 0.00 | 0.00 | 45 | 993.3 |
| 20260504021554 | 64 | 248 | 7.0 | 12.2 | 0.00 | 0.00 | 0.00 | 44 | 993.7 |
| 20260504020047 | 65 | 271 | 7.0 | 9.6 | 0.00 | 0.00 | 0.00 | 43 | 994.0 |
| 20260504014544 | 66 | 243 | 7.0 | 8.7 | 0.00 | 0.00 | 0.00 | 41 | 994.4 |
| 20260504013040 | 68 | 245 | 6.1 | 11.3 | 0.00 | 0.00 | 0.00 | 39 | 994.8 |
| 20260504011538 | 70 | 260 | 7.8 | 12.2 | 0.00 | 0.00 | 0.00 | 37 | 995.2 |
| 20260504010041 | 70 | 259 | 7.0 | 13.0 | 0.00 | 0.00 | 0.00 | 36 | 995.5 |
| 20260504004533 | 71 | 262 | 7.8 | 13.9 | 0.00 | 0.00 | 0.00 | 35 | 996.0 |
| 20260504003031 | 72 | 286 | 10.4 | 17.4 | 0.00 | 0.00 | 0.00 | 34 | 996.3 |
| 20260504001529 | 73 | 278 | 10.4 | 17.4 | 0.00 | 0.00 | 0.00 | 31 | 996.5 |
| 20260504000026 | 74 | 302 | 11.3 | 17.4 | 0.00 | 0.00 | 0.00 | 29 | 996.9 |
| 20260503234527 | 73 | 306 | 11.3 | 18.2 | 0.00 | 0.00 | 0.00 | 30 | 997.2 |
| 20260503233022 | 73 | 250 | 9.6 | 20.0 | 0.00 | 0.00 | 0.00 | 32 | 997.5 |
| 20260503231521 | 73 | 293 | 10.4 | 18.2 | 0.00 | 0.00 | 0.00 | 30 | 997.8 |
| 20260503230117 | 74 | 283 | 13.0 | 20.0 | 0.00 | 0.00 | 0.00 | 29 | 998.1 |
| 20260503224515 | 73 | 281 | 11.3 | 18.2 | 0.00 | 0.00 | 0.00 | 31 | 998.5 |
| 20260503223022 | 74 | 257 | 14.8 | 20.0 | 0.00 | 0.00 | 0.00 | 31 | 998.8 |
| 20260503221509 | 72 | 273 | 10.4 | 16.5 | 0.00 | 0.00 | 0.00 | 33 | 999.2 |
| 20260503220011 | 71 | 285 | 9.6 | 18.2 | 0.00 | 0.00 | 0.00 | 35 | 999.7 |
| 20260503214505 | 71 | 264 | 11.3 | 20.0 | 0.00 | 0.00 | 0.00 | 33 | 999.9 |
| 20260503213003 | 72 | 281 | 14.8 | 21.7 | 0.00 | 0.00 | 0.00 | 32 | 1000.2 |
| 20260503211500 | 71 | 273 | 10.4 | 18.2 | 0.00 | 0.00 | 0.00 | 34 | 1000.7 |
| 20260503210100 | 72 | 255 | 10.4 | 18.2 | 0.00 | 0.00 | 0.00 | 35 | 1001.3 |
| 20260503204608 | 72 | 257 | 9.6 | 20.0 | 0.00 | 0.00 | 0.00 | 34 | 1001.9 |
| 20260503203054 | 72 | 295 | 7.8 | 16.5 | 0.00 | 0.00 | 0.00 | 35 | 1002.2 |
| 20260503201550 | 71 | 263 | 9.6 | 15.6 | 0.00 | 0.00 | 0.00 | 35 | 1002.7 |
| 20260503200046 | 71 | 283 | 10.4 | 18.2 | 0.00 | 0.00 | 0.00 | 34 | 1003.0 |
| 20260503194543 | 70 | 297 | 11.3 | 20.0 | 0.00 | 0.00 | 0.00 | 34 | 1003.5 |
| 20260503193042 | 70 | 286 | 11.3 | 19.1 | 0.00 | 0.00 | 0.00 | 35 | 1003.7 |
| 20260503191555 | 70 | 292 | 7.8 | 17.4 | 0.00 | 0.00 | 0.00 | 37 | 1003.8 |
| 20260503190037 | 69 | 271 | 10.4 | 19.1 | 0.00 | 0.00 | 0.00 | 38 | 1004.4 |
| 20260503184535 | 69 | 287 | 6.1 | 15.6 | 0.00 | 0.00 | 0.00 | 39 | 1004.9 |
| 20260503183040 | 68 | 302 | 7.8 | 19.1 | 0.00 | 0.00 | 0.00 | 37 | 1005.4 |
| 20260503181528 | 67 | 283 | 8.7 | 15.6 | 0.00 | 0.00 | 0.00 | 38 | 1005.9 |
| 20260503180031 | 67 | 276 | 8.7 | 13.0 | 0.00 | 0.00 | 0.00 | 38 | 1006.2 |
| 20260503174523 | 66 | 295 | 7.8 | 13.0 | 0.00 | 0.00 | 0.00 | 40 | 1006.7 |
| 20260503173018 | 65 | 298 | 7.0 | 13.0 | 0.00 | 0.00 | 0.00 | 40 | 1007.0 |
| 20260503171519 | 64 | 313 | 6.1 | 13.0 | 0.00 | 0.00 | 0.00 | 40 | 1007.4 |
| 20260503090105 | 38 | 300 | 0.0 | 0.0 | 0.00 | 0.00 | 0.00 | 72 | 1010.0 |
| 20260503081556 | 40 | 347 | 0.0 | 0.0 | 0.00 | 0.00 | 0.00 | 69 | 1009.7 |
| 20260503071602 | 42 | 323 | 0.0 | 0.0 | 0.00 | 0.00 | 0.00 | 69 | 1009.6 |
| 20260503054532 | 46 | 317 | 0.0 | 0.0 | 0.00 | 0.00 | 0.00 | 74 | 1009.2 |
| 20260503053020 | 48 | 297 | 0.0 | 0.9 | 0.00 | 0.00 | 0.00 | 73 | 1009.2 |